TimeEST,TemperatureF,Dew PointF,Humidity,Sea Level PressureIn,VisibilityMPH,Wind Direction,Wind SpeedMPH,Gust SpeedMPH,PrecipitationIn,Events,Conditions,WindDirDegrees,DateUTC
12:53 AM,69.1,64.9,87,30.13,10.0,Calm,Calm,-,N/A,,Mostly Cloudy,0,2012-11-28 05:53:00
1:53 AM,69.1,64.9,87,30.12,10.0,Calm,Calm,-,N/A,,Clear,0,2012-11-28 06:53:00
2:53 AM,69.1,64.9,87,30.11,10.0,WNW,3.5,-,N/A,,Clear,300,2012-11-28 07:53:00
3:53 AM,69.1,64.9,87,30.11,10.0,Calm,Calm,-,N/A,,Clear,0,2012-11-28 08:53:00
4:53 AM,68.0,64.9,90,30.11,10.0,Calm,Calm,-,N/A,,Clear,0,2012-11-28 09:53:00
5:53 AM,69.1,64.9,87,30.13,9.0,NNW,3.5,-,N/A,,Scattered Clouds,340,2012-11-28 10:53:00
6:53 AM,69.1,64.0,84,30.14,9.0,Calm,Calm,-,N/A,,Overcast,0,2012-11-28 11:53:00
7:53 AM,69.1,64.0,84,30.16,10.0,NNE,3.5,-,N/A,,Overcast,30,2012-11-28 12:53:00
8:53 AM,71.1,64.9,81,30.18,10.0,Variable,4.6,-,N/A,,Overcast,0,2012-11-28 13:53:00
9:53 AM,73.0,66.0,79,30.20,10.0,Variable,5.8,-,N/A,,Overcast,0,2012-11-28 14:53:00
10:53 AM,75.9,64.0,67,30.19,10.0,North,5.8,-,N/A,,Overcast,350,2012-11-28 15:53:00
11:53 AM,77.0,64.0,64,30.17,10.0,North,6.9,-,N/A,,Overcast,360,2012-11-28 16:53:00
12:53 PM,78.1,63.0,60,30.15,10.0,NNW,9.2,-,N/A,,Overcast,330,2012-11-28 17:53:00
1:53 PM,79.0,61.0,54,30.14,10.0,Variable,4.6,-,N/A,,Overcast,0,2012-11-28 18:53:00
2:53 PM,79.0,59.0,50,30.12,10.0,North,6.9,-,N/A,,Overcast,360,2012-11-28 19:53:00
3:53 PM,79.0,59.0,50,30.12,10.0,North,8.1,-,N/A,,Overcast,360,2012-11-28 20:53:00
4:53 PM,78.1,59.0,52,30.13,10.0,Variable,3.5,-,N/A,,Overcast,0,2012-11-28 21:53:00
5:53 PM,75.9,63.0,64,30.14,10.0,NE,5.8,-,N/A,,Overcast,40,2012-11-28 22:53:00
6:53 PM,75.0,62.1,64,30.15,10.0,Variable,6.9,-,N/A,,Overcast,0,2012-11-28 23:53:00
7:53 PM,73.0,63.0,71,30.18,10.0,North,9.2,-,N/A,,Overcast,360,2012-11-29 00:53:00
8:53 PM,72.0,63.0,73,30.19,10.0,Variable,5.8,-,N/A,,Overcast,0,2012-11-29 01:53:00
9:53 PM,70.0,63.0,78,30.19,10.0,Variable,3.5,-,N/A,,Overcast,0,2012-11-29 02:53:00
9:55 PM,69.8,62.6,78,30.19,10.0,North,6.9,-,N/A,,Overcast,360,2012-11-29 02:55:00
10:35 PM,69.8,62.6,78,30.19,10.0,North,9.2,-,N/A,,Overcast,360,2012-11-29 03:35:00
10:53 PM,69.1,63.0,81,30.19,10.0,Variable,5.8,-,N/A,,Overcast,0,2012-11-29 03:53:00
11:53 PM,68.0,64.0,87,30.17,6.0,NNW,4.6,-,0.00,Rain,Light Rain,330,2012-11-29 04:53:00